Date,TemperatureHighF,TemperatureAvgF,TemperatureLowF,DewpointHighF,DewpointAvgF,DewpointLowF,HumidityHigh,HumidityAvg,HumidityLow,PressureMaxIn,PressureMinIn,WindSpeedMaxMPH,WindSpeedAvgMPH,GustSpeedMaxMPH,PrecipitationSumIn
2013-3-1,56.2,47.7,39.9,35.0,32.2,29.0,73,56,42,30.26,30.18,21,7,31,0.00
2013-3-2,61.1,49.9,43.1,32.0,29.6,26.0,58,47,28,30.23,29.78,21,7,28,0.00
2013-3-3,45.0,37.4,23.4,33.0,21.1,8.0,84,54,28,30.14,29.62,36,9,44,0.00
2013-3-4,28.7,22.2,13.0,20.0,15.7,8.0,89,77,56,30.44,30.14,20,3,24,0.03
2013-3-5,38.3,24.0,8.9,22.0,14.8,6.0,90,70,40,30.39,30.13,10,3,17,0.00
2013-3-6,41.0,30.0,22.9,33.0,24.2,19.0,89,80,58,30.13,29.73,13,3,22,0.01
2013-3-7,47.5,36.0,26.1,27.0,22.4,17.0,91,61,33,30.07,29.87,11,3,22,0.00
2013-3-8,51.8,33.3,19.1,24.0,17.8,4.0,89,60,15,30.07,29.89,12,2,15,0.00
2013-3-9,50.8,34.7,17.7,24.0,19.0,15.0,90,57,28,30.28,30.04,10,1,14,0.00
2013-3-10,52.8,42.2,35.6,26.0,21.8,15.0,59,46,23,30.28,30.07,18,8,27,0.00
2013-3-11,40.2,33.7,24.7,26.0,22.8,20.0,87,66,46,30.36,30.02,16,5,30,0.00
2013-3-12,50.5,36.5,21.4,32.0,23.7,18.0,87,62,42,30.36,30.06,25,7,28,0.00
2013-3-13,63.2,53.7,48.0,33.0,30.5,27.0,55,42,27,30.09,30.00,22,6,29,0.00
2013-3-14,66.2,53.2,42.7,31.0,29.3,28.0,60,41,25,30.05,29.82,17,5,23,0.00
2013-3-15,59.6,52.3,37.7,32.0,28.1,25.0,66,41,30,29.97,29.80,18,6,31,0.00
2013-3-16,53.7,39.5,27.2,33.0,26.1,23.0,84,61,38,29.97,29.63,17,3,24,0.00
2013-3-17,41.9,30.9,14.9,28.0,17.8,12.0,88,61,36,30.08,29.51,20,6,27,0.00
2013-3-18,38.4,27.6,12.0,23.0,17.3,8.0,89,67,43,30.08,29.98,22,5,33,0.07
2013-3-19,46.1,32.4,17.3,23.0,15.5,9.0,90,56,25,30.31,30.07,11,3,15,0.00
2013-3-20,61.4,47.6,35.1,35.0,20.9,9.0,70,36,24,30.07,29.40,23,11,37,0.02
2013-3-21,41.9,36.4,29.2,22.0,14.2,7.0,55,41,27,29.94,29.56,21,6,31,0.00
2013-3-22,29.7,24.6,17.7,22.0,16.7,10.0,86,72,53,30.35,29.94,15,4,18,0.00
2013-3-23,35.5,22.6,8.4,14.0,6.9,2.0,88,56,26,30.46,30.35,8,2,13,0.00
2013-3-24,40.7,24.9,9.3,14.0,7.3,4.0,83,52,24,30.47,30.30,5,1,8,0.00
2013-3-25,50.6,35.1,22.4,13.0,9.4,4.0,55,37,15,30.31,30.03,19,4,27,0.00
2013-3-26,56.2,39.1,24.7,24.0,18.7,13.0,74,47,23,30.04,29.91,9,2,13,0.00
2013-3-27,62.2,44.4,23.9,32.0,24.2,18.0,81,50,24,30.01,29.91,15,3,23,0.00
2013-3-28,62.2,48.4,33.6,37.0,32.8,28.0,85,58,29,30.01,29.90,14,2,17,0.00
2013-3-29,60.6,50.0,39.6,36.0,30.9,26.0,75,51,28,30.10,30.00,14,3,17,0.00
2013-3-30,61.4,46.1,29.8,34.0,27.4,24.0,85,53,24,30.20,30.02,9,2,13,0.00
2013-3-31,57.7,45.1,29.6,32.0,26.3,23.0,82,51,30,30.12,29.99,11,2,16,0.00